{"data":{"norad_id":58740,"intl_designator":"2024-005N","name":"STARLINK-31159","alt_names":[],"object_type":"PAYLOAD","status":"ACTIVE","operator":null,"country":"US","launch_date":"2024-01-07","launch_site_code":"AFETR","launch_vehicle":null,"mission":null,"orbit_class":"UNKNOWN","rcs_meters":null,"size_class":null,"mass_kg":null,"dimensions":null,"purposes":["comms"],"wikipedia_slug":null,"has_3d_model":false,"image_url":null,"decayed_at":null,"tle_current":{"epoch":"2026-05-25T00:47:28.755744Z","epoch_age_seconds":71886,"freshness":"FRESH","line1":"1 58740U 24005N   26145.03297171  .00000752  00000+0  36865-4 0  9998","line2":"2 58740  43.0007 148.2356 0001412 277.4383  82.6308 15.27577480132213","mean_motion":15.2757748,"eccentricity":0.0001412,"inclination_deg":43.0007,"raan_deg":148.2356,"arg_perigee_deg":277.4383,"mean_anomaly_deg":82.6308,"bstar":3.6865e-5,"rev_number":13221,"period_min":94.266904222757,"perigee_km":482.08784129436,"apogee_km":484.02544237882,"semimajor_km":6861.1936418366,"source":"CELESTRAK","updated_at":"2026-05-25T13:38:18.721167Z"}}}